Bellefontaine, OH

6:14 AM EDT on September 20, 2017 (GMT -0400)
Bellefontaine

Weather History for KEDJ - August, 2013

Change the Weather History Date:

Friday, August 23, 2013

  Actual Average (KDLZ) Record (KDLZ)
Temperature  
Mean Temperature 71 °F -  
Max Temperature 80 °F 80 °F 98 °F (1936)
Min Temperature 60 °F 57 °F 44 °F (1982)
Cooling Degree Days 6    
Growing Degree Days 21 (Base 50)    
Moisture  
Dew Point 63 °F    
Average Humidity 77    
Maximum Humidity 100    
Minimum Humidity 51    
Precipitation  
Precipitation 0.08 in - - ()
Sea Level Pressure  
Sea Level Pressure 30.10 in    
Wind  
Wind Speed 5 mph (North)    
Max Wind Speed 12 mph    
Max Gust Speed -    
Visibility 7 miles    
Events      
Averages and records for this station are not official NWS values.
T = Trace of Precipitation, MM = Missing Value Source: NWS Daily Summary

Daily Weather History Graph

Daily Weather History Graph

Search for Another Location

Airport or City:

Trip Planner

Search our weather history database for the weather conditions in past years. The results will help you decide how hot, cold, wet, or windy it might be!

Date:

Astronomy

Aug. 23, 2013 Rise Set
Actual Time 6:54 AM EDT 8:20 PM EDT
Civil Twilight 6:25 AM EDT 8:49 PM EDT
Nautical Twilight 5:51 AM EDT 9:23 PM EDT
Astronomical Twilight 5:14 AM EDT 9:59 PM EDT
Moon 9:38 PM EDT (8/23) 9:49 AM EDT (8/23)
Length of Visible Light 14h 23m
Length of Day
13h 26m
Waning Gibbous, 91% of the Moon is Illuminated
Aug 23
Waning Gibbous
Aug 28
Last Quarter
Sep 5
New
Sep 12
First Quarter
Sep 19
Full

Hourly Weather History & Observations

Time (EDT) Temp. Heat Index Dew Point Humidity Pressure Visibility Wind Dir Wind Speed Gust Speed Precip Events Conditions
12:10 AM 68.0 °F - 68.0 °F 100% 30.07 in 1.8 mi WNW 5.8 mph - 0.00 in   Overcast
12:30 AM 68.0 °F - 68.0 °F 100% 30.08 in 2.5 mi WNW 4.6 mph - 0.00 in   Overcast
12:50 AM 68.0 °F - 68.0 °F 100% 30.07 in 2.5 mi WNW 4.6 mph - 0.00 in   Overcast
1:10 AM 68.0 °F - 68.0 °F 100% 30.08 in 2.5 mi WNW 4.6 mph - 0.00 in   Overcast
1:30 AM 66.2 °F - 66.2 °F 100% 30.08 in 3.0 mi WNW 5.8 mph - 0.00 in   Overcast
1:50 AM 66.2 °F - 66.2 °F 100% 30.08 in 4.0 mi NW 3.5 mph - 0.00 in   Overcast
2:10 AM 66.2 °F - 66.2 °F 100% 30.08 in 4.0 mi NW 6.9 mph - 0.00 in   Overcast
2:30 AM 66.2 °F - 66.2 °F 100% 30.08 in 2.0 mi NNW 6.9 mph - 0.03 in   Overcast
2:50 AM 66.2 °F - 66.2 °F 100% 30.07 in 2.0 mi NNW 5.8 mph - 0.07 in   Overcast
3:10 AM 66.2 °F - 66.2 °F 100% 30.06 in 2.5 mi Calm Calm - 0.00 in   Overcast
3:30 AM 66.2 °F - 66.2 °F 100% 30.06 in 3.0 mi North 4.6 mph - 0.01 in   Overcast
3:50 AM 66.2 °F - 66.2 °F 100% 30.05 in 2.5 mi Calm Calm - 0.01 in   Mostly Cloudy
4:10 AM 66.2 °F - 66.2 °F 100% 30.05 in 2.0 mi Calm Calm - 0.00 in   Mostly Cloudy
4:30 AM 66.2 °F - 66.2 °F 100% 30.04 in 1.5 mi Calm Calm - 0.00 in   Mostly Cloudy
4:50 AM 64.4 °F - 64.4 °F 100% 30.05 in 0.2 mi Calm Calm - 0.00 in   Mostly Cloudy
5:10 AM 64.4 °F - - N/A% 30.05 in 0.5 mi NNW 5.8 mph - 0.00 in   Mostly Cloudy
5:30 AM 64.4 °F - - N/A% 30.06 in 2.5 mi North 3.5 mph - 0.00 in   Partly Cloudy
5:50 AM 64.4 °F - - N/A% 30.06 in 2.5 mi WNW 4.6 mph - 0.00 in   Partly Cloudy
6:10 AM 64.4 °F - - N/A% 30.07 in 3.0 mi North 4.6 mph - 0.00 in   Mostly Cloudy
6:30 AM 64.4 °F - - N/A% 30.07 in 2.5 mi Calm Calm - 0.00 in   Mostly Cloudy
6:50 AM 64.4 °F - - N/A% 30.08 in 2.5 mi North 3.5 mph - 0.00 in   Overcast
7:10 AM 64.4 °F - - N/A% 30.08 in 1.8 mi North 3.5 mph - 0.00 in   Overcast
7:30 AM 64.4 °F - - N/A% 30.09 in 2.0 mi North 3.5 mph - 0.00 in   Overcast
7:50 AM 66.2 °F - - N/A% 30.09 in 1.8 mi NE 5.8 mph - 0.00 in   Overcast
8:10 AM 66.2 °F - - N/A% 30.09 in 2.0 mi ENE 5.8 mph - 0.00 in   Overcast
8:30 AM 66.2 °F - - N/A% 30.11 in 3.0 mi North 4.6 mph - 0.00 in   Overcast
8:50 AM 66.2 °F - - N/A% 30.11 in 5.0 mi North 5.8 mph - 0.00 in   Mostly Cloudy
9:10 AM 66.2 °F - 66.2 °F 100% 30.10 in 5.0 mi Calm Calm - 0.00 in   Scattered Clouds
9:30 AM 68.0 °F - 68.0 °F 100% 30.11 in 5.0 mi North 4.6 mph - 0.00 in   Mostly Cloudy
9:50 AM 69.8 °F - 69.8 °F 100% 30.11 in 9.0 mi North 3.5 mph - 0.00 in   Mostly Cloudy
10:10 AM 69.8 °F - 68.0 °F 94% 30.11 in 9.0 mi North 9.2 mph - 0.00 in   Mostly Cloudy
10:30 AM 71.6 °F - 68.0 °F 88% 30.12 in 10.0 mi North 6.9 mph - 0.00 in   Mostly Cloudy
10:50 AM 71.6 °F - 66.2 °F 83% 30.12 in 10.0 mi North 6.9 mph - 0.00 in   Partly Cloudy
11:10 AM 73.4 °F - 66.2 °F 78% 30.12 in 10.0 mi North 8.1 mph - 0.00 in   Partly Cloudy
11:30 AM 73.4 °F - 64.4 °F 73% 30.12 in 10.0 mi North 4.6 mph - 0.00 in   Partly Cloudy
11:50 AM 75.2 °F - 64.4 °F 69% 30.12 in 10.0 mi NNE 3.5 mph - 0.00 in   Clear
12:10 PM 75.2 °F - 64.4 °F 69% 30.12 in 10.0 mi NNW 8.1 mph - 0.00 in   Clear
12:30 PM 75.2 °F - 64.4 °F 69% 30.12 in 10.0 mi North 6.9 mph - 0.00 in   Clear
12:50 PM 77.0 °F - 64.4 °F 65% 30.12 in 10.0 mi North 9.2 mph - 0.00 in   Clear
1:10 PM 77.0 °F - 62.6 °F 61% 30.12 in 10.0 mi NE 6.9 mph - 0.00 in   Clear
1:30 PM 78.8 °F - 62.6 °F 57% 30.11 in 10.0 mi NNW 3.5 mph - 0.00 in   Partly Cloudy
1:50 PM 78.8 °F - 64.4 °F 61% 30.11 in 10.0 mi North 5.8 mph - 0.00 in   Scattered Clouds
2:10 PM 77.0 °F - 64.4 °F 65% 30.11 in 10.0 mi NNE 8.1 mph - 0.00 in   Scattered Clouds
2:30 PM 78.8 °F - 64.4 °F 61% 30.11 in 10.0 mi North 6.9 mph - 0.00 in   Partly Cloudy
2:50 PM 78.8 °F - 62.6 °F 57% 30.11 in 10.0 mi NNE 9.2 mph - 0.00 in   Scattered Clouds
3:10 PM 78.8 °F - 60.8 °F 54% 30.11 in 10.0 mi NNE 6.9 mph - 0.00 in   Scattered Clouds
3:30 PM 80.6 °F 81.5 °F 60.8 °F 51% 30.10 in 10.0 mi North 6.9 mph - 0.00 in   Partly Cloudy
3:50 PM 80.6 °F 81.5 °F 60.8 °F 51% 30.10 in 10.0 mi NNW 8.1 mph - 0.00 in   Partly Cloudy
4:10 PM 78.8 °F - 60.8 °F 54% 30.10 in 10.0 mi North 9.2 mph - 0.00 in   Scattered Clouds
4:30 PM 78.8 °F - 60.8 °F 54% 30.10 in 10.0 mi North 8.1 mph - 0.00 in   Clear
4:50 PM 80.6 °F 81.5 °F 60.8 °F 51% 30.09 in 10.0 mi North 11.5 mph - 0.00 in   Clear
5:10 PM 80.6 °F 81.8 °F 62.6 °F 54% 30.09 in 10.0 mi NNE 9.2 mph - 0.00 in   Partly Cloudy
5:30 PM 80.6 °F 81.5 °F 60.8 °F 51% 30.09 in 10.0 mi North 9.2 mph - 0.00 in   Partly Cloudy
5:50 PM 80.6 °F 81.5 °F 60.8 °F 51% 30.09 in 10.0 mi North 10.4 mph - 0.00 in   Clear
6:10 PM 78.8 °F - 60.8 °F 54% 30.09 in 10.0 mi North 10.4 mph - 0.00 in   Clear
6:30 PM 78.8 °F - 60.8 °F 54% 30.10 in 10.0 mi North 10.4 mph - 0.00 in   Clear
6:50 PM 77.0 °F - 60.8 °F 57% 30.10 in 10.0 mi North 10.4 mph - 0.00 in   Clear
7:10 PM 75.2 °F - 59.0 °F 57% 30.10 in 10.0 mi North 9.2 mph - 0.00 in   Clear
7:30 PM 75.2 °F - 59.0 °F 57% 30.10 in 10.0 mi NNE 10.4 mph - 0.00 in   Clear
7:50 PM 73.4 °F - 59.0 °F 61% 30.11 in 10.0 mi NNE 9.2 mph - 0.00 in   Clear
8:10 PM 71.6 °F - 59.0 °F 64% 30.12 in 10.0 mi NNE 8.1 mph - 0.00 in   Clear
8:30 PM 69.8 °F - 59.0 °F 68% 30.12 in 10.0 mi NNE 8.1 mph - 0.00 in   Clear
8:50 PM 66.2 °F - 59.0 °F 78% 30.13 in 10.0 mi NE 5.8 mph - 0.00 in   Clear
9:10 PM 64.4 °F - 60.8 °F 88% 30.15 in 10.0 mi NE 5.8 mph - 0.00 in   Clear
9:30 PM 62.6 °F - 60.8 °F 94% 30.16 in 10.0 mi NE 4.6 mph - 0.00 in   Clear
9:50 PM 62.6 °F - 57.2 °F 82% 30.16 in 10.0 mi ENE 4.6 mph - 0.00 in   Clear
10:10 PM 62.6 °F - 57.2 °F 82% 30.16 in 10.0 mi ENE 5.8 mph - 0.00 in   Clear
10:25 PM 62.6 °F - 57.2 °F 82% 30.17 in 10.0 mi ENE 4.6 mph - 0.00 in   Clear
10:50 PM 62.6 °F - 55.4 °F 77% 30.17 in 10.0 mi ENE 4.6 mph - 0.00 in   Clear
11:10 PM 62.6 °F - 55.4 °F 77% 30.17 in 10.0 mi ENE 3.5 mph - 0.00 in   Clear
11:30 PM 62.6 °F - 55.4 °F 77% 30.18 in 10.0 mi ENE 3.5 mph - 0.00 in   Clear
11:50 PM 60.8 °F - 53.6 °F 77% 30.18 in 10.0 mi Calm Calm - 0.00 in   Clear